TimeEDT,TemperatureF,Dew PointF,Humidity,Sea Level PressureIn,VisibilityMPH,Wind Direction,Wind SpeedMPH,Gust SpeedMPH,PrecipitationIn,Events,Conditions,WindDirDegrees,DateUTC
12:10 AM,51.8,50.0,94,30.42,0.2,Calm,Calm,-,N/A,Fog,Fog,0,2011-10-09 04:10:00
12:25 AM,51.8,48.2,88,30.42,1.8,Calm,Calm,-,N/A,,Partly Cloudy,0,2011-10-09 04:25:00
12:32 AM,50.0,48.2,94,30.42,7.0,Calm,Calm,-,N/A,,Partly Cloudy,0,2011-10-09 04:32:00
12:53 AM,50.0,48.0,93,30.41,4.0,Calm,Calm,-,N/A,,Clear,0,2011-10-09 04:53:00
1:10 AM,51.8,48.2,88,30.42,2.5,Calm,Calm,-,N/A,,Clear,0,2011-10-09 05:10:00
1:28 AM,50.0,48.2,94,30.41,1.5,Calm,Calm,-,N/A,,Clear,0,2011-10-09 05:28:00
1:41 AM,50.0,48.2,94,30.41,3.0,Calm,Calm,-,N/A,,Clear,0,2011-10-09 05:41:00
1:50 AM,50.0,46.4,87,30.41,1.8,Calm,Calm,-,N/A,,Clear,0,2011-10-09 05:50:00
1:53 AM,50.0,46.9,89,30.41,1.0,Calm,Calm,-,N/A,,Clear,0,2011-10-09 05:53:00
2:01 AM,50.0,48.2,94,30.41,0.5,Calm,Calm,-,N/A,Fog,Fog,0,2011-10-09 06:01:00
2:10 AM,48.2,46.4,93,30.41,1.5,Calm,Calm,-,N/A,,Clear,0,2011-10-09 06:10:00
2:12 AM,48.2,46.4,93,30.41,4.0,Calm,Calm,-,N/A,,Clear,0,2011-10-09 06:12:00
2:20 AM,50.0,46.4,87,30.41,1.8,Calm,Calm,-,N/A,,Clear,0,2011-10-09 06:20:00
2:37 AM,50.0,46.4,87,30.41,3.0,Calm,Calm,-,N/A,,Clear,0,2011-10-09 06:37:00
2:53 AM,48.9,46.9,93,30.41,4.0,Calm,Calm,-,0.01,,Clear,0,2011-10-09 06:53:00
3:01 AM,50.0,46.4,87,30.41,0.8,Calm,Calm,-,N/A,,Clear,0,2011-10-09 07:01:00
3:05 AM,48.2,46.4,93,30.41,1.2,Calm,Calm,-,N/A,,Clear,0,2011-10-09 07:05:00
3:31 AM,48.2,46.4,93,30.41,1.0,Calm,Calm,-,N/A,,Mist,0,2011-10-09 07:31:00
3:38 AM,48.2,46.4,93,30.41,0.2,Calm,Calm,-,N/A,Fog,Fog,0,2011-10-09 07:38:00
3:53 AM,48.9,46.9,93,30.41,0.8,Calm,Calm,-,N/A,,Mist,0,2011-10-09 07:53:00
3:59 AM,48.2,46.4,93,30.42,1.2,Calm,Calm,-,N/A,,Partly Cloudy,0,2011-10-09 07:59:00
4:08 AM,48.2,46.4,93,30.42,4.0,Calm,Calm,-,N/A,,Clear,0,2011-10-09 08:08:00
4:53 AM,46.9,45.0,93,30.42,4.0,Calm,Calm,-,N/A,,Clear,0,2011-10-09 08:53:00
5:23 AM,48.2,44.6,87,30.43,4.0,Calm,Calm,-,N/A,,Clear,0,2011-10-09 09:23:00
5:29 AM,48.2,44.6,87,30.43,1.8,Calm,Calm,-,N/A,,Clear,0,2011-10-09 09:29:00
5:47 AM,48.2,44.6,87,30.43,2.5,Calm,Calm,-,N/A,,Partly Cloudy,0,2011-10-09 09:47:00
5:53 AM,46.9,45.0,93,30.43,4.0,Calm,Calm,-,N/A,,Scattered Clouds,0,2011-10-09 09:53:00
6:02 AM,46.4,44.6,93,30.44,2.5,Calm,Calm,-,N/A,,Mostly Cloudy,0,2011-10-09 10:02:00
6:22 AM,46.4,44.6,93,30.44,1.5,Calm,Calm,-,N/A,,Overcast,0,2011-10-09 10:22:00
6:26 AM,48.2,44.6,87,30.44,0.8,Calm,Calm,-,N/A,,Mist,0,2011-10-09 10:26:00
6:51 AM,46.4,44.6,93,30.44,1.5,Calm,Calm,-,N/A,,Overcast,0,2011-10-09 10:51:00
6:53 AM,46.0,44.1,93,30.45,2.5,Calm,Calm,-,N/A,,Overcast,0,2011-10-09 10:53:00
7:01 AM,44.6,42.8,93,30.44,4.0,Calm,Calm,-,N/A,,Mostly Cloudy,0,2011-10-09 11:01:00
7:11 AM,44.6,42.8,93,30.45,3.0,Calm,Calm,-,N/A,,Scattered Clouds,0,2011-10-09 11:11:00
7:27 AM,44.6,42.8,93,30.44,6.0,Calm,Calm,-,N/A,,Mostly Cloudy,0,2011-10-09 11:27:00
7:46 AM,46.4,42.8,87,30.44,1.8,Calm,Calm,-,N/A,,Overcast,0,2011-10-09 11:46:00
7:48 AM,46.4,42.8,87,30.45,0.8,Calm,Calm,-,N/A,,Overcast,0,2011-10-09 11:48:00
7:53 AM,46.0,44.1,93,30.45,0.2,Calm,Calm,-,N/A,Fog,Fog,0,2011-10-09 11:53:00
8:08 AM,46.4,46.4,100,30.45,1.5,Calm,Calm,-,N/A,,Mostly Cloudy,0,2011-10-09 12:08:00
8:13 AM,48.2,46.4,93,30.45,3.0,Calm,Calm,-,N/A,,Mostly Cloudy,0,2011-10-09 12:13:00
8:22 AM,48.2,46.4,93,30.46,4.0,Calm,Calm,-,N/A,,Scattered Clouds,0,2011-10-09 12:22:00
8:53 AM,52.0,48.9,89,30.48,4.0,Calm,Calm,-,N/A,,Clear,0,2011-10-09 12:53:00
9:53 AM,60.1,53.1,78,30.48,10.0,Calm,Calm,-,N/A,,Clear,0,2011-10-09 13:53:00
10:53 AM,66.0,52.0,60,30.47,10.0,SE,3.5,-,N/A,,Clear,130,2011-10-09 14:53:00
11:53 AM,71.1,53.1,53,30.45,10.0,SSW,4.6,-,N/A,,Clear,200,2011-10-09 15:53:00
12:53 PM,73.0,48.0,41,30.44,10.0,SW,4.6,-,N/A,,Clear,230,2011-10-09 16:53:00
2:53 PM,77.0,48.9,37,30.38,10.0,South,4.6,-,N/A,,Clear,180,2011-10-09 18:53:00
3:53 PM,77.0,46.9,34,30.37,10.0,Calm,Calm,-,N/A,,Clear,0,2011-10-09 19:53:00
4:53 PM,79.0,48.0,34,30.36,10.0,Calm,Calm,-,N/A,,Clear,0,2011-10-09 20:53:00
5:53 PM,78.1,51.1,39,30.35,10.0,Calm,Calm,-,N/A,,Clear,0,2011-10-09 21:53:00
6:53 PM,66.0,57.0,73,30.35,10.0,Calm,Calm,-,N/A,,Clear,0,2011-10-09 22:53:00
7:53 PM,62.1,57.0,84,30.36,10.0,Calm,Calm,-,N/A,,Clear,0,2011-10-09 23:53:00
8:53 PM,57.9,54.0,87,30.35,9.0,Calm,Calm,-,N/A,,Clear,0,2011-10-10 00:53:00
9:28 PM,57.2,53.6,88,30.35,2.5,Calm,Calm,-,N/A,,Clear,0,2011-10-10 01:28:00
9:43 PM,55.4,53.6,94,30.35,1.2,Calm,Calm,-,N/A,,Clear,0,2011-10-10 01:43:00
9:46 PM,55.4,53.6,94,30.35,0.8,Calm,Calm,-,N/A,,Clear,0,2011-10-10 01:46:00
9:53 PM,55.0,53.1,93,30.35,1.0,Calm,Calm,-,N/A,,Clear,0,2011-10-10 01:53:00
9:55 PM,55.4,53.6,94,30.35,2.0,Calm,Calm,-,N/A,,Clear,0,2011-10-10 01:55:00
10:02 PM,55.4,53.6,94,30.35,6.0,Calm,Calm,-,N/A,,Clear,0,2011-10-10 02:02:00
10:15 PM,53.6,51.8,94,30.35,1.8,Calm,Calm,-,N/A,,Clear,0,2011-10-10 02:15:00
10:20 PM,53.6,51.8,94,30.35,0.8,Calm,Calm,-,N/A,,Clear,0,2011-10-10 02:20:00
10:34 PM,53.6,53.6,100,30.35,1.2,Calm,Calm,-,N/A,,Clear,0,2011-10-10 02:34:00
10:46 PM,53.6,51.8,94,30.35,0.8,Calm,Calm,-,N/A,,Mist,0,2011-10-10 02:46:00
10:53 PM,53.1,51.1,93,30.35,0.2,Calm,Calm,-,N/A,Fog,Fog,0,2011-10-10 02:53:00
11:03 PM,53.6,51.8,94,30.35,1.5,Calm,Calm,-,N/A,,Partly Cloudy,0,2011-10-10 03:03:00
11:10 PM,53.6,51.8,94,30.35,3.0,Calm,Calm,-,N/A,,Partly Cloudy,0,2011-10-10 03:10:00
11:28 PM,53.6,51.8,94,30.35,2.0,Calm,Calm,-,N/A,,Clear,0,2011-10-10 03:28:00
11:53 PM,53.1,50.0,89,30.35,2.5,Calm,Calm,-,N/A,,Clear,0,2011-10-10 03:53:00